Find Shiyan 23 Weixing

NORAD ID: 59728 Int'l Des: 2024-089 Owner: CNSA Country: CN operational
LEOCIRCULARRETROGRADESSO

Live Position

Loading 3D Globe...

About Shiyan 23 Weixing

Description loading...

Upcoming Passes

Passes for default location (London). Set your location on the main map for personalized predictions.

Altitude History

Loading altitude history...

Two-Line Element Set

1 59728U 24089A 26105.68669707 .00000284 00000-0 37723-4 0 9997
2 59728 97.7780 108.7550 0004607 56.7686 303.3971 14.86957640104553
Epoch: Apr 15, 2026 • Age: 13 hours

Current Status

Altitude 617.1 km
Velocity 7.56 km/s
Sub-Earth Point 73.54°N, 151.46°E
Launch Date May 11, 2024
Age 1.9 years
Type other

Technical Details

Classification Payload
Mass 1000.00 kg
Dry Mass 1000.00 kg
Total Mass 1000.00 kg
Length 1.50 m
Diameter 1.50 m
Span 5.00 m
Shape Box + 2 Pan
Manufacturer CAST
Bus Type SY23
Phase Status In Orbit
Owner/State CNSA/CN

Most Searched